Location: Garbet
(42.8837°N, 1.2115°E)
Time: 09:04:50
(UTC+00:00)

Cosmos 1953 Rocket - Pass Details

Date: 22 March 2026
Orbit: 599 x 626 km, 82.5° (Epoch: 18 April)

Event Time Altitude Azimuth Distance (km) Brightness Sun altitude
Rises 03:50:50 0° 10° (N) 2,899 7.5 -22.9°
Reaches altitude 10° 03:54:04 10° 35° (NE) 1,993 7.0 -22.4°
Maximum altitude 03:56:27 14° 68° (ENE) 1,726 6.9 -22.0°
Drops below altitude 10° 03:58:50 10° 101° (ESE) 1,992 6.9 -21.6°
Sets 04:02:03 0° 127° (SE) 2,896 7.4 -21.1°
